Vertical_Velocity
-1 1 4 0 0 -0 -1 -0 0 -1 1 0 -0 -1 0 1 -1 -0 -1 -1 0 2 1 -1 -1 -0 -0 -0 -0 -0 -0 -1 -1 0 1 -1 -1 -1 -0 -0 -1 0 -1
0 0 3 3 0 1 0 -0 -0 -0 -1 0 0 -0 -1 -0 -1 -1 0 -0 -1 -1 -0 1 0 -1 -1 -1 -2 -1 -1 -1 -1 -1 -1 -1 -1 0 -1 -0 0 -1 -0
1 1 1 5 4 -1 1 -0 -0 -1 -1 -1 -1 -0 -1 1 1 1 0 0 -0 -1 -0 1 0 1 0 1 0 1 0 -0 -1 -1 -1 -1 -2 -2 -1 -1 -1 1 -1
1 0 1 4 2 2 0 0 -0 -1 -1 0 -0 -0 0 -1 -0 -0 -0 0 -0 0 -0 -0 -1 -1 -1 -1 -0 1 -1 -1 0 0 -1 -0 0 -1 -2 -2 -1 -2 -0
1 1 1 2 0 0 0 0 1 -1 1 1 1 0 1 0 0 0 -1 0 0 -0 -1 -1 -2 -1 -1 0 -0 -1 -1 -1 -1 -1 -1 -1 -1 0 2 1 1 0 -0
-1 -1 -0 0 -1 -1 -0 -1 -0 -0 1 1 -1 -1 -0 -0 -1 0 1 2 -0 0 0 1 0 1 1 -0 1 -1 0 0 -0 -1 -1 -2 -1 -2 -1 -1 5 -0 -1
1 0 1 -1 -0 -0 1 -0 -1 -0 -1 -1 -1 0 -0 -1 0 -0 0 -1 -0 -0 -0 -1 -0 2 2 -0 -1 0 3 2 -0 1 0 -0 -1 -1 -0 -1 4 1 0
2 -0 1 -0 1 0 -0 -1 0 1 -0 0 -0 1 0 -0 -1 -2 -2 -1 -3 -1 -1 -1 -1 -2 -2 2 1 1 -2 -1 -1 -2 0 0 -1 -2 -1 -2 -1 10 8
1 0 0 1 0 0 0 -2 1 -1 1 -1 -0 -0 -1 -0 -0 -1 -0 -1 -0 -1 -0 -0 0 -1 -0 -0 -0 -0 -0 1 -1 1 -1 -3 -1 -2 -3 -1 -2 1 0
0 1 1 1 -1 -0 0 -1 0 -1 -1 -0 -0 -1 -0 -0 -1 0 -0 1 0 -0 -1 0 -0 -1 -1 -0 -0 1 0 -1 0 -2 -2 -2 -1 0 0 -1 -1 1 1
1 2 0 1 -0 1 -0 -1 -0 -0 -1 -1 0 -1 0 -0 -0 -1 -1 -0 -0 0 -0 -0 1 0 -1 -1 -0 -0 1 1 0 0 0 2 -1 -2 5 3 -1 -1 -1
-0 1 0 0 -1 -0 0 0 -0 -0 0 -0 1 -1 0 -0 -1 -1 -2 -2 -1 -2 -0 -0 -1 0 0 0 2 2 1 1 0 0 0 2 1 2 4 2 0 -2 -2
0 0 1 -1 0 0 -1 -1 -0 1 -1 -0 -2 -1 1 0 -1 -0 -1 -0 -0 -1 -1 -1 -2 -2 -1 -2 -1 -1 1 -0 -1 -1 -2 1 -2 -1 1 4 3 8 9
0 0 0 -0 1 -1 -2 1 -0 -1 -2 0 -2 -1 2 1 1 0 -1 -1 -0 -1 0 -1 -1 -2 1 -1 -2 -1 -2 -0 0 -0 1 2 2 1 0 -0 1 -1 -4
1 0 0 -0 -2 0 -1 -0 -2 -2 -1 -1 -1 1 1 1 1 -0 -1 -1 -1 -1 -1 -1 -2 -2 -2 1 -1 -1 0 1 1 -1 -2 -1 -1 -1 0 0 -1 1 1
1 0 -0 -2 1 -1 0 -1 -2 1 -1 -2 0 1 -0 -1 -1 -2 -2 -1 -1 -0 -0 -2 -2 -1 -2 -1 -0 -1 -1 -2 -0 2 1 2 1 -0 0 1 0 1 -1
0 -0 -1 1 -1 0 0 -2 -1 -1 -1 0 -0 -0 -2 -2 -3 -3 -1 -2 -2 -1 -1 -0 1 -1 1 -0 -1 -2 -1 -1 0 1 -1 -0 2 -1 -1 -2 -0 0 1
-0 -1 -1 -1 -0 -1 -1 -2 -1 0 0 1 -0 -1 -1 -3 -2 -2 -1 -2 -2 -2 -3 -2 -3 -1 -1 -2 1 -2 0 2 2 1 1 1 -0 -1 -3 -1 -1 -1 -1
-0 -1 0 -0 0 0 -1 -1 -0 1 1 1 -1 -0 -2 -2 -3 -2 -2 -1 -2 -2 -0 -3 -0 -2 -2 1 -1 -3 0 1 2 2 1 1 2 1 -1 -4 -4 -3 -2
-1 0 -0 0 -0 -0 -1 -1 1 1 1 -0 -1 -1 -1 -1 0 0 -0 0 0 -2 0 -1 -1 -1 1 1 -0 -0 -1 -1 0 1 1 1 1 2 2 3 4 2 0
-1 0 1 -1 -0 -1 -1 -0 1 -0 -1 -0 1 -0 -0 -2 -3 -1 0 -1 -1 -1 -2 -3 -2 -2 -3 -1 -1 1 2 3 0 1 2 2 4 4 4 3 4 6 6
2 1 -0 -0 -1 -1 0 -0 -0 -1 -1 -1 -0 0 -1 -1 -2 -2 0 -2 1 1 -2 -3 -5 -3 -2 -1 1 2 1 4 3 0 -0 -1 -0 -0 -3 1 2 2 0
0 1 1 -0 -0 -0 -0 -1 -2 -1 -1 -0 -0 -2 -3 2 -3 -2 -2 -1 -1 -1 -1 -2 -2 -3 -4 -4 -5 -3 -2 0 -3 1 2 2 1 -2 -4 -4 -6 -9 -5
2 0 0 1 0 -0 -2 -1 -1 -2 -1 0 0 0 1 1 -0 -0 -0 -1 0 0 0 -1 -1 -1 -1 -0 2 3 2 0 -0 -2 -2 -2 -2 -1 2 2 -1 4 1
1 2 1 -0 1 -2 -1 1 -1 2 1 -2 -0 0 1 1 2 0 1 0 -0 -0 -1 -0 0 -1 -2 -2 -0 0 2 3 4 2 -2 1 2 -1 1 2 1 -4 -3
2 0 1 1 -0 -2 1 -2 1 -0 -2 -1 1 -1 0 2 2 -1 -1 -1 -1 -0 -1 -3 -3 -3 -3 -4 -4 -5 -4 -5 -4 -3 -4 -3 -7 -5 -5 -5 -2 1 2
Height
1561 1563 1564 1565 1566 1566 1567 1567 1567 1568 1568 1568 1568 1568 1567 1566 1566 1566 1565 1565 1564 1564 1564 1564 1563 1563 1562 1562 1561 1561 1560 1560 1559 1559 1559 1559 1558 1558 1558 1557 1556 1556 1555
1561 1563 1565 1566 1566 1567 1567 1568 1568 1568 1568 1568 1568 1568 1568 1567 1567 1566 1566 1566 1565 1565 1565 1564 1564 1563 1563 1562 1561 1560 1560 1559 1559 1559 1559 1558 1558 1558 1557 1557 1557 1556 1555
1562 1563 1565 1566 1567 1567 1567 1568 1568 1569 1569 1569 1568 1568 1568 1568 1567 1566 1566 1566 1565 1565 1565 1564 1564 1563 1563 1562 1561 1560 1559 1558 1558 1557 1558 1558 1557 1557 1557 1557 1556 1556 1555
1562 1564 1565 1566 1567 1567 1568 1569 1568 1568 1569 1569 1568 1568 1568 1567 1567 1566 1566 1565 1565 1564 1564 1564 1563 1563 1562 1562 1561 1560 1558 1557 1557 1556 1556 1556 1556 1556 1556 1556 1555 1555 1554
1562 1564 1566 1566 1567 1568 1568 1569 1568 1568 1568 1568 1568 1568 1567 1567 1567 1566 1565 1565 1564 1563 1563 1563 1562 1562 1561 1560 1560 1559 1558 1557 1556 1555 1554 1554 1554 1554 1554 1554 1554 1554 1553
1562 1564 1566 1567 1567 1568 1568 1568 1568 1568 1568 1568 1567 1567 1566 1566 1565 1565 1564 1564 1563 1562 1561 1561 1560 1560 1559 1558 1558 1557 1556 1556 1555 1554 1553 1553 1553 1553 1552 1552 1552 1552 1552
1562 1564 1566 1567 1568 1568 1568 1568 1568 1568 1567 1566 1566 1565 1565 1564 1564 1563 1562 1562 1561 1560 1560 1559 1558 1557 1557 1556 1555 1555 1555 1554 1553 1553 1552 1551 1551 1551 1551 1551 1550 1550 1550
1562 1564 1566 1567 1568 1568 1568 1568 1567 1567 1566 1566 1565 1564 1563 1562 1561 1561 1560 1559 1559 1558 1557 1556 1555 1554 1554 1553 1552 1552 1551 1551 1551 1550 1550 1549 1549 1548 1548 1548 1549 1548 1548
1562 1564 1565 1566 1567 1568 1567 1568 1567 1566 1566 1565 1564 1563 1561 1560 1559 1558 1557 1556 1555 1554 1553 1552 1551 1550 1550 1549 1549 1548 1548 1547 1547 1547 1547 1546 1546 1545 1545 1545 1546 1546 1546
1562 1563 1565 1566 1566 1567 1567 1567 1566 1565 1564 1563 1562 1560 1559 1557 1556 1555 1553 1552 1551 1550 1549 1547 1547 1546 1545 1545 1545 1544 1544 1544 1544 1543 1543 1543 1543 1543 1542 1542 1542 1542 1542
1562 1563 1564 1565 1565 1566 1566 1565 1564 1564 1562 1561 1560 1559 1558 1555 1554 1552 1550 1549 1548 1546 1545 1543 1542 1541 1540 1540 1539 1539 1539 1539 1539 1539 1539 1539 1539 1539 1538 1538 1537 1537 1537
1562 1563 1563 1564 1565 1564 1564 1564 1563 1562 1561 1560 1558 1557 1555 1553 1552 1550 1548 1546 1544 1543 1541 1539 1538 1536 1535 1534 1534 1534 1534 1533 1533 1534 1534 1534 1534 1534 1534 1533 1533 1533 1533
1561 1562 1563 1563 1563 1563 1563 1563 1562 1561 1560 1559 1557 1556 1554 1552 1550 1548 1547 1545 1543 1541 1539 1537 1535 1533 1531 1530 1530 1529 1529 1529 1528 1528 1529 1529 1529 1530 1529 1529 1529 1528 1528
1560 1562 1562 1563 1563 1563 1562 1562 1561 1560 1559 1558 1557 1555 1553 1551 1549 1546 1545 1543 1541 1539 1537 1535 1533 1531 1529 1527 1525 1525 1524 1524 1523 1523 1524 1524 1524 1525 1524 1524 1525 1524 1524
1560 1561 1562 1562 1563 1562 1561 1561 1560 1559 1558 1556 1555 1554 1551 1549 1547 1545 1544 1542 1539 1537 1535 1533 1531 1529 1527 1525 1522 1520 1519 1519 1518 1519 1519 1519 1519 1520 1520 1520 1520 1520 1520
1559 1560 1561 1562 1562 1561 1561 1560 1559 1558 1557 1556 1554 1552 1550 1548 1546 1544 1543 1540 1538 1535 1533 1530 1528 1526 1524 1522 1519 1518 1516 1515 1514 1514 1514 1515 1515 1515 1516 1516 1516 1516 1516
1558 1560 1560 1561 1561 1560 1559 1558 1558 1557 1556 1555 1553 1552 1550 1548 1546 1544 1541 1539 1536 1534 1531 1529 1527 1524 1522 1520 1517 1515 1514 1512 1511 1510 1510 1511 1512 1511 1512 1512 1512 1512 1512
1557 1558 1559 1559 1559 1558 1558 1558 1557 1556 1555 1554 1553 1552 1550 1548 1546 1544 1541 1538 1534 1532 1529 1527 1525 1522 1520 1518 1515 1513 1512 1510 1509 1508 1507 1508 1508 1508 1507 1508 1507 1507 1507
1555 1556 1557 1557 1557 1556 1557 1556 1556 1555 1554 1553 1552 1550 1549 1547 1545 1543 1540 1537 1534 1531 1528 1526 1523 1520 1517 1516 1513 1512 1510 1508 1508 1507 1506 1507 1506 1505 1504 1504 1504 1503 1502
1553 1554 1555 1555 1555 1555 1555 1554 1554 1553 1553 1551 1550 1549 1548 1546 1544 1541 1539 1536 1533 1530 1528 1525 1522 1519 1516 1513 1512 1511 1510 1508 1508 1507 1506 1506 1506 1505 1504 1503 1502 1501 1500
1551 1552 1552 1553 1554 1553 1552 1552 1552 1551 1551 1550 1549 1547 1546 1544 1543 1541 1538 1535 1532 1529 1526 1524 1522 1519 1516 1513 1512 1512 1511 1509 1509 1508 1507 1506 1505 1504 1502 1501 1500 1498 1497
1548 1549 1550 1552 1551 1550 1550 1550 1550 1550 1549 1549 1547 1546 1544 1542 1541 1539 1537 1534 1531 1528 1526 1524 1521 1518 1516 1513 1512 1511 1510 1510 1508 1506 1505 1504 1503 1501 1499 1498 1496 1495 1494
1544 1547 1549 1549 1549 1549 1549 1548 1548 1547 1547 1546 1545 1544 1543 1541 1539 1537 1536 1533 1531 1528 1526 1523 1521 1518 1516 1515 1513 1513 1511 1510 1508 1505 1504 1502 1500 1498 1496 1494 1493 1492 1491
1541 1544 1546 1547 1547 1547 1547 1546 1545 1545 1544 1544 1543 1542 1540 1539 1537 1535 1534 1532 1530 1527 1525 1522 1520 1518 1516 1514 1513 1511 1509 1509 1507 1505 1503 1500 1498 1497 1495 1492 1491 1490 1489
1537 1540 1543 1545 1546 1546 1545 1544 1543 1542 1541 1541 1540 1539 1538 1536 1535 1533 1532 1530 1528 1526 1524 1521 1519 1517 1515 1513 1512 1510 1509 1507 1506 1504 1501 1499 1497 1494 1493 1492 1489 1488 1486
1533 1536 1540 1543 1544 1544 1543 1542 1542 1540 1539 1538 1537 1536 1535 1533 1532 1530 1528 1527 1526 1524 1522 1520 1518 1515 1513 1511 1509 1508 1507 1505 1505 1504 1502 1499 1497 1495 1492 1489 1488 1487 1485